This is the latest recevied weather packets stored in our database for station/object KM4CBK. If no packets are shown the sender has not sent any weather packets the latest 10 day(s).
| Time | Temp. | Humidity | Pressure | Rain* | Wind** | Luminosity | Snow |
|---|---|---|---|---|---|---|---|
| 1777778188 | 10° C | 88% | 1016.5 hPa | 0 mm | - | 0 W/m² | - |
| 1777777886 | 10° C | 86% | 1016.4 hPa | 0 mm | - | 0 W/m² | - |
| 1777777581 | 10° C | 87% | 1016.7 hPa | 0 mm | - | 0 W/m² | - |
| 1777777278 | 10° C | 87% | 1016.5 hPa | 0 mm | - | 0 W/m² | - |
| 1777776975 | 10.56° C | 87% | 1016.4 hPa | 0 mm | - | 0 W/m² | - |
| 1777776673 | 10.56° C | 87% | 1016.4 hPa | 0 mm | - | 0 W/m² | - |
| 1777776369 | 10.56° C | 87% | 1016.4 hPa | 0 mm | - | 0 W/m² | - |
| 1777776066 | 10.56° C | 87% | 1016.3 hPa | 0 mm | - | 0 W/m² | - |
| 1777775763 | 10.56° C | 86% | 1015.9 hPa | 0 mm | - | 0 W/m² | - |
| 1777775460 | 10.56° C | 85% | 1016 hPa | 0 mm | - | 0 W/m² | - |
| 1777775156 | 11.11° C | 83% | 1016 hPa | 0 mm | - | 0 W/m² | - |
| 1777774851 | 11.11° C | 83% | 1016.2 hPa | 0 mm | - | 0 W/m² | - |
| 1777774548 | 11.11° C | 84% | 1016 hPa | 0 mm | - | 0 W/m² | - |
| 1777774245 | 11.11° C | 81% | 1015.9 hPa | 0 mm | - | 0 W/m² | - |
| 1777773942 | 11.67° C | 81% | 1015.7 hPa | 0 mm | - | 0 W/m² | - |
| 1777773639 | 11.67° C | 79% | 1015.7 hPa | 0 mm | - | 0 W/m² | - |
| 1777773335 | 11.67° C | 78% | 1015.9 hPa | 0 mm | - | 0 W/m² | - |
| 1777773033 | 11.67° C | 76% | 1015.6 hPa | 0 mm | - | 0 W/m² | - |
| 1777772729 | 12.22° C | 76% | 1015.3 hPa | 0 mm | - | 0 W/m² | - |
| 1777772427 | 12.22° C | 76% | 1015.4 hPa | 0 mm | - | 0 W/m² | - |
| 1777772124 | 12.78° C | 73% | 1015.3 hPa | 0 mm | - | 0 W/m² | - |
| 1777771822 | 12.78° C | 74% | 1015.2 hPa | 0 mm | - | 0 W/m² | - |
| 1777771519 | 13.33° C | 69% | 1015.1 hPa | 0 mm | - | 0 W/m² | - |
| 1777771215 | 13.33° C | 67% | 1015.2 hPa | 0 mm | - | 0 W/m² | - |
| 1777770912 | 13.89° C | 65% | 1015 hPa | 0 mm | - | 0 W/m² | - |
* Rain latest hour (hover to see other rain measurements)
** Current wind speed in m/s (hover to see current wind gust speed)